Regional Weather Roundup
Issued by NWS

Home | Current Version | Previous Version | Text Only | Print | Product List | Glossary On
Versions: 1 2 3 4 5 6 7 8 9 10 11 12 13 14 15 16 17 18 19 20 21 22 23 24 25 26 27 28 29 30 31 32 33 34 35 36 37 38 39 40 41 42 43 44 45 46 47 48 49 50
000
ASUS44 KJAN 250010
RWRMS

MISSISSIPPI HOURLY WEATHER ROUNDUP
NATIONAL WEATHER SERVICE JACKSON MS
700 PM CDT FRI APR 24 2015

NOTE: "FAIR: INDICATES FEW OR NO CLOUDS BELOW 12,000 FEET WITH NO
SIGNIFICANT WEATHER AND/OR OBSTRUCTIONS TO VISIBILITY.

MSZ001>002-007>008-010>013-018>021-025>028-034>036-250100-
NORTHWEST MISSISSIPPI

CITY           SKY/WX    TMP DP  RH WIND       PRES   REMARKS
CLARKSDALE       N/A     57  57 100 E12       29.85F
CLEVELAND      CLOUDY    62  62 100 N8        29.84F
GREENWOOD      CLOUDY    67  59  75 VRB3      29.83F
6HR MIN TEMP:  64; 6HR MAX TEMP:  69; 6HR PCP:  0.01;

GREENVILLE     CLOUDY    66  62  87 E5        29.81F
6HR MIN TEMP:  64; 6HR MAX TEMP:  67; 6HR PCP: TRACE;

OLIVE BRANCH   RAIN      54  54 100 SE9       29.88S FOG
OXFORD         CLOUDY    55  54  94 NE6       29.90R FOG
TUNICA         LGT RAIN  55  54  94 SE13      29.87F
$$

MSZ003>006-009-014>017-022>024-029>033-037>039-250100-
NORTHEAST MISSISSIPPI

CITY           SKY/WX    TMP DP  RH WIND       PRES   REMARKS
COLUMBUS AFB   CLOUDY    66  56  70 SE3       29.89R
6HR MIN TEMP:  66; 6HR MAX TEMP:  70; 6HR PCP: TRACE;

CORINTH        FAIR      57  54  88 E6        29.88F
GOLDN TRIANGLE MOCLDY    68  52  56 SE9       29.89F
STARKVILLE     CLOUDY    64  55  72 SE3       29.89R
TUPELO         LGT RAIN  62  54  74 E5        29.88F
6HR MIN TEMP:  62; 6HR MAX TEMP:  68; 6HR PCP:  0.01;

$$

MSZ040-058-250100-
CENTRAL MISSISSIPPI

CITY           SKY/WX    TMP DP  RH WIND       PRES   REMARKS
JACKSON INTL   CLOUDY    71  64  78 SE9       29.85R
6HR MIN TEMP:  71; 6HR MAX TEMP:  77; 6HR PCP: TRACE;

JACKSON HAWKNS CLOUDY    71  64  78 SE7       29.86R
6HR MIN TEMP:  71; 6HR MAX TEMP:  78; 6HR PCP: TRACE;

MERIDIAN KEY   MOCLDY    72  60  66 SE5       29.88F
6HR MIN TEMP:  72; 6HR MAX TEMP:  76; 6HR PCP: TRACE;

MERIDIAN NAS   MOCLDY    70  57  63 E9        29.88F
6HR MIN TEMP:  70; 6HR MAX TEMP:  74;

RAYMOND        MOCLDY    72  66  83 SE5       29.85R
VICKSBURG      CLOUDY    73  68  84 SE6       29.83R
6HR MIN TEMP:  73; 6HR MAX TEMP:  76; 6HR PCP:  0.01;

$$

MSZ059>079-250100-
SOUTH MISSISSIPPI

CITY           SKY/WX    TMP DP  RH WIND       PRES   REMARKS
BROOKHAVEN     CLOUDY    70  70 100 SE6       29.87S
HATTIESBURG    CLOUDY    74  67  78 SE3       29.88S
6HR MIN TEMP:  73; 6HR MAX TEMP:  75; 6HR PCP: TRACE;

MCCOMB         CLOUDY    72  69  90 SE9       29.86S
6HR MIN TEMP:  69; 6HR MAX TEMP:  75; 6HR PCP:  0.04;

NATCHEZ        CLOUDY    73  70  88 S10       29.82F
6HR MIN TEMP:  68; 6HR MAX TEMP:  75; 6HR PCP:  0.11;

PINE BELT      PTCLDY    72  61  68 SE7       29.89R
6HR MIN TEMP:  70; 6HR MAX TEMP:  73;

$$

MSZ080>082-250100-
COASTAL MISSISSIPPI

CITY           SKY/WX    TMP DP  RH WIND       PRES   REMARKS
BILOXI         CLOUDY    75  73  94 SE9       29.86F THUNDER
6HR MIN TEMP:  74; 6HR MAX TEMP:  78; 6HR PCP: TRACE;

PASCAGOULA     CLOUDY    74  69  85 SE10      29.89F
6HR MIN TEMP:  73; 6HR MAX TEMP:  79;

GULFPORT       CLOUDY    75  71  87 SE15      29.86R
6HR MIN TEMP:  74; 6HR MAX TEMP:  78; 6HR PCP: TRACE;

$$



USA.gov is the U.S. government's official web portal to all federal, state and local government web resources and services.